Starlink 30800

operational
NORAD ID: 58206 Int'l Des: 2023-170 Owner: SPXS Country: US Constellation: starlink
LEOCIRCULAR

Starlink 30800について

説明を読み込み中...

リアルタイム位置

3D地球を読み込み中...

次回通過

高度履歴

Altitude vs Time

uPlot chart will show altitude changes over time

軌道要素

1 58206U 23170A 25258.16866167 .00001311 00000-0 11213-3 0 9994
2 58206 43.0028 69.9028 0001522 264.7927 95.2742 15.02534454103872
Epoch: Sep 15, 2025 • Age: 10 hours

現在のステータス

高度 561.4 km
速度 7.59 km/s
衛星直下点 34.89°N, 7.73°W
打ち上げ日 Nov 4, 2023
運用期間 1.8 years
タイプ internet

技術仕様

分類 Payload
質量 730.00 kg
乾燥質量 700.00 kg
総質量 730.00 kg
長さ 0.30 m
直径 4.10 m
スパン 29.00 m
形状 Box + pan
製造者 SPXS
バスタイプ Starlink V2M
フェーズステータス In Orbit
所有者/国 SPXS/US

大規模コンステレーション

Loading constellations...